Visibility
15.0 15.0 15.0 15.0 13.4 14.9 10.4 15.0 15.0 14.9 14.8 15.0 13.5 12.9 14.9 15.0 14.2 12.9 15.0 13.1 7.0 10.5 15.0 15.0 15.0 15.0 15.0 15.0 15.0 15.0 12.9 1.8 1.1 1.4 6.6 13.5 15.0 15.0 13.7 15.0 15.0 15.0 2.0 7.7 0.2 0.1 0.1 15.0 15.0 13.1 13.9 15.0 15.0 15.0
15.0 15.0 15.0 15.0 14.6 15.0 9.8 11.8 12.4 14.8 14.1 13.8 7.7 13.7 15.0 12.3 15.0 14.9 12.2 13.6 15.0 7.0 13.0 15.0 15.0 15.0 15.0 15.0 15.0 14.8 9.3 1.4 0.6 1.4 0.8 0.6 0.2 13.6 1.1 5.5 15.0 15.0 6.1 0.1 0.3 0.1 10.9 15.0 15.0 15.0 9.8 15.0 15.0 15.0
15.0 14.8 14.9 15.0 15.0 12.2 14.4 14.8 7.0 9.3 14.3 14.2 9.8 8.3 15.0 12.8 14.2 15.0 15.0 13.1 7.8 4.1 12.9 15.0 15.0 15.0 15.0 15.0 15.0 15.0 15.0 15.0 13.9 14.0 12.8 15.0 15.0 15.0 3.2 3.7 2.4 7.6 15.0 14.6 15.0 15.0 15.0 13.9 15.0 5.8 12.9 15.0 15.0 15.0
11.1 14.5 14.5 15.0 15.0 15.0 11.0 15.0 14.0 15.0 13.9 15.0 8.3 7.1 14.6 10.9 14.6 12.3 15.0 10.2 8.9 14.8 11.5 15.0 15.0 15.0 15.0 15.0 15.0 15.0 15.0 15.0 15.0 14.6 9.0 15.0 15.0 15.0 15.0 15.0 15.0 13.8 15.0 15.0 15.0 15.0 15.0 15.0 15.0 15.0 15.0 15.0 15.0 15.0
5.0 7.6 15.0 15.0 15.0 15.0 12.7 14.7 15.0 15.0 13.4 15.0 15.0 7.0 15.0 15.0 13.2 14.4 14.2 12.3 12.8 15.0 4.6 6.8 15.0 15.0 15.0 15.0 15.0 15.0 15.0 15.0 15.0 2.4 5.0 7.1 15.0 11.6 15.0 15.0 15.0 15.0 15.0 15.0 15.0 15.0 11.7 1.4 6.0 15.0 15.0 15.0 15.0 15.0
14.2 14.9 15.0 15.0 15.0 15.0 15.0 11.3 15.0 15.0 15.0 15.0 14.1 8.4 10.0 11.5 7.7 8.9 0.0 6.4 10.6 10.7 11.6 6.8 15.0 15.0 15.0 15.0 15.0 15.0 15.0 15.0 7.1 0.0 0.8 10.5 15.0 7.5 1.6 15.0 15.0 15.0 15.0 15.0 15.0 15.0 15.0 6.1 13.0 15.0 15.0 15.0 15.0 15.0
15.0 12.1 10.5 14.3 15.0 15.0 15.0 13.9 13.4 14.8 15.0 15.0 14.7 9.1 14.3 14.6 11.6 0.1 0.3 15.0 15.0 7.6 0.0 8.7 15.0 15.0 15.0 15.0 15.0 15.0 15.0 15.0 2.7 1.1 2.0 6.0 15.0 10.6 11.6 15.0 15.0 15.0 15.0 15.0 15.0 14.3 6.4 15.0 15.0 15.0 15.0 15.0 10.3 15.0
15.0 15.0 15.0 13.1 15.0 14.4 12.4 14.3 12.8 10.1 10.5 15.0 15.0 6.1 3.8 11.1 7.8 0.1 15.0 15.0 15.0 3.5 0.0 3.2 13.1 15.0 15.0 15.0 15.0 15.0 11.2 7.3 0.0 0.8 12.6 15.0 14.3 11.8 7.1 15.0 15.0 15.0 15.0 15.0 15.0 15.0 11.1 15.0 15.0 15.0 15.0 15.0 15.0 8.4
15.0 15.0 15.0 15.0 15.0 14.8 13.8 14.9 12.0 10.5 7.0 6.4 7.3 4.8 0.5 0.1 0.0 0.0 15.0 15.0 15.0 15.0 5.1 3.4 15.0 15.0 15.0 14.7 2.6 3.7 13.4 0.6 14.7 1.8 8.7 7.9 5.2 2.1 15.0 15.0 15.0 15.0 15.0 15.0 15.0 13.8 15.0 15.0 15.0 15.0 15.0 15.0 15.0 15.0
15.0 15.0 15.0 15.0 15.0 11.5 15.0 14.6 10.9 15.0 9.6 15.0 12.4 0.0 0.1 0.0 8.5 9.8 0.1 0.0 0.0 0.0 0.0 0.5 15.0 14.9 14.7 15.0 14.6 14.4 0.1 0.1 0.1 10.1 11.5 0.9 14.3 15.0 15.0 15.0 15.0 15.0 15.0 5.8 15.0 15.0 15.0 15.0 15.0 15.0 15.0 15.0 15.0 15.0
14.6 15.0 14.7 10.5 3.7 3.7 8.9 15.0 15.0 15.0 15.0 8.0 0.0 0.0 0.0 7.7 0.1 0.0 0.1 0.3 0.5 1.6 15.0 15.0 15.0 13.9 15.0 14.9 14.8 12.7 2.2 0.5 0.3 5.3 7.7 2.2 10.8 15.0 15.0 15.0 15.0 8.9 15.0 15.0 15.0 15.0 15.0 15.0 15.0 15.0 15.0 15.0 15.0 13.0
15.0 15.0 15.0 15.0 12.3 6.2 5.6 10.0 14.0 15.0 15.0 15.0 4.3 4.2 0.3 0.2 3.2 0.2 0.5 0.3 11.3 15.0 15.0 15.0 15.0 15.0 10.2 15.0 15.0 15.0 2.0 6.5 1.3 0.6 0.3 11.3 0.6 10.0 15.0 15.0 15.0 15.0 15.0 15.0 15.0 15.0 15.0 15.0 15.0 15.0 12.4 1.0 0.9 7.4
15.0 15.0 15.0 15.0 15.0 15.0 15.0 15.0 15.0 15.0 15.0 15.0 15.0 15.0 5.2 8.6 0.1 1.5 1.8 8.5 15.0 15.0 15.0 15.0 15.0 15.0 15.0 15.0 3.1 0.0 0.1 1.1 5.3 0.8 2.4 1.0 14.8 6.1 15.0 15.0 15.0 15.0 15.0 15.0 15.0 15.0 15.0 15.0 15.0 5.1 0.2 1.6 7.5 14.0
15.0 15.0 15.0 15.0 15.0 15.0 15.0 15.0 15.0 15.0 2.5 7.5 15.0 15.0 12.9 15.0 15.0 15.0 15.0 15.0 15.0 15.0 15.0 15.0 15.0 9.6 8.3 0.0 0.3 0.7 6.5 15.0 0.3 0.9 8.7 12.2 15.0 15.0 15.0 15.0 15.0 14.6 15.0 15.0 15.0 13.4 13.4 11.8 0.1 0.1 1.6 0.5 2.7 0.1
15.0 15.0 15.0 15.0 15.0 15.0 15.0 15.0 15.0 15.0 11.8 10.8 15.0 5.4 10.8 15.0 11.8 3.9 15.0 13.1 9.2 8.6 10.2 13.7 15.0 9.4 0.0 0.4 15.0 15.0 15.0 8.9 15.0 0.2 6.0 15.0 15.0 15.0 15.0 15.0 15.0 6.8 15.0 10.6 9.8 0.1 0.1 0.2 5.9 0.2 4.9 5.9 14.7 15.0
15.0 15.0 15.0 15.0 15.0 15.0 15.0 15.0 15.0 15.0 0.2 4.3 14.0 6.0 14.7 11.5 4.5 0.0 15.0 15.0 15.0 15.0 15.0 15.0 15.0 0.1 0.7 15.0 15.0 15.0 15.0 15.0 9.3 15.0 15.0 15.0 15.0 15.0 15.0 15.0 15.0 9.2 15.0 0.8 9.8 13.0 15.0 15.0 14.8 2.9 12.2 14.0 5.9 6.9
15.0 15.0 15.0 15.0 15.0 15.0 15.0 14.9 8.6 0.0 0.0 11.9 6.5 0.0 3.1 9.8 0.0 0.0 8.0 15.0 14.7 15.0 12.9 10.1 0.1 7.7 12.6 15.0 15.0 15.0 10.1 6.9 0.2 15.0 15.0 15.0 15.0 12.4 0.1 2.2 0.4 3.9 15.0 15.0 15.0 15.0 15.0 0.3 0.1 15.0 15.0 15.0 15.0 15.0
15.0 15.0 15.0 15.0 15.0 13.4 9.0 2.5 0.0 0.0 0.1 13.8 4.7 0.1 15.0 9.0 0.1 2.9 2.7 15.0 13.9 14.5 11.7 0.2 4.8 15.0 15.0 15.0 13.7 14.5 15.0 11.5 15.0 15.0 15.0 15.0 15.0 15.0 15.0 15.0 15.0 15.0 15.0 15.0 15.0 15.0 15.0 15.0 15.0 15.0 15.0 15.0 15.0 14.6
15.0 15.0 15.0 15.0 15.0 10.6 9.3 14.8 9.6 0.8 1.3 15.0 15.0 15.0 15.0 6.8 11.9 15.0 15.0 15.0 15.0 15.0 1.8 6.9 15.0 14.4 14.6 13.4 12.3 15.0 10.9 13.7 9.1 15.0 15.0 15.0 15.0 15.0 15.0 15.0 15.0 15.0 15.0 15.0 15.0 15.0 15.0 15.0 15.0 15.0 15.0 15.0 15.0 15.0
15.0 15.0 15.0 15.0 15.0 15.0 15.0 14.6 14.6 15.0 11.5 10.3 15.0 15.0 15.0 15.0 15.0 14.7 15.0 15.0 14.8 15.0 10.7 14.4 12.6 9.7 8.3 12.2 14.1 14.9 9.9 11.2 10.1 9.5 13.7 15.0 15.0 15.0 15.0 15.0 15.0 15.0 15.0 15.0 15.0 15.0 15.0 15.0 15.0 15.0 15.0 15.0 15.0 8.4
15.0 15.0 15.0 15.0 15.0 15.0 10.1 11.3 2.7 14.8 10.5 15.0 15.0 15.0 15.0 15.0 15.0 15.0 15.0 15.0 15.0 15.0 9.6 0.0 0.2 14.9 15.0 15.0 15.0 15.0 15.0 14.6 15.0 15.0 15.0 15.0 15.0 15.0 15.0 15.0 15.0 15.0 15.0 15.0 15.0 15.0 15.0 15.0 15.0 15.0 15.0 3.6 3.3 3.1
15.0 15.0 14.9 15.0 15.0 15.0 15.0 15.0 10.9 15.0 11.0 5.1 14.6 9.6 2.8 3.7 4.5 15.0 15.0 9.7 0.7 0.2 15.0 15.0 15.0 15.0 15.0 15.0 15.0 15.0 15.0 15.0 15.0 15.0 15.0 15.0 15.0 15.0 15.0 0.1 0.4 15.0 15.0 15.0 15.0 15.0 11.6 15.0 15.0 15.0 7.9 0.8 15.0 15.0
15.0 11.5 11.3 15.0 15.0 15.0 11.3 15.0 8.3 13.7 11.3 15.0 15.0 13.5 14.2 5.5 0.4 6.9 1.6 0.7 1.8 14.5 15.0 15.0 15.0 14.9 15.0 15.0 15.0 15.0 15.0 10.4 7.2 15.0 7.4 15.0 15.0 0.1 13.2 15.0 15.0 15.0 15.0 15.0 15.0 15.0 0.7 13.0 15.0 11.7 2.1 2.2 3.6 4.8
15.0 15.0 15.0 15.0 14.6 9.0 15.0 10.1 15.0 15.0 15.0 15.0 15.0 7.2 0.7 3.4 15.0 1.8 0.2 0.3 1.6 15.0 15.0 15.0 15.0 15.0 15.0 15.0 11.7 3.4 3.2 0.1 0.0 0.0 0.0 0.0 0.0 0.8 15.0 15.0 15.0 15.0 15.0 15.0 15.0 14.3 1.2 0.8 14.4 8.8 6.8 1.2 2.2 3.5
9.9 2.8 0.2 0.4 14.3 2.8 15.0 6.2 15.0 14.9 5.8 14.9 1.2 0.2 14.8 15.0 3.0 0.6 0.3 0.1 0.9 2.9 15.0 15.0 15.0 15.0 15.0 15.0 14.9 0.6 0.1 0.0 0.0 0.0 0.0 0.0 0.0 0.0 6.9 15.0 15.0 15.0 15.0 0.1 0.1 0.1 0.1 1.4 0.8 0.3 0.5 0.9 3.5 1.9
0.2 0.7 0.2 0.6 2.5 0.2 0.6 0.8 10.5 1.3 6.7 5.4 15.0 14.5 15.0 15.0 14.3 0.2 0.1 0.2 0.5 3.1 2.3 2.6 6.2 12.6 15.0 15.0 14.1 14.5 5.2 0.0 0.0 0.0 0.0 0.0 0.0 0.0 0.0 0.0 0.4 14.5 12.5 0.0 0.0 0.4 0.5 0.4 0.3 0.1 0.1 0.2 0.3 0.2
0.5 0.5 0.9 1.1 0.2 0.2 0.3 8.9 11.9 3.8 7.0 4.1 4.4 15.0 15.0 15.0 0.5 0.1 0.4 6.4 6.2 4.2 3.5 4.9 10.2 2.6 6.8 15.0 15.0 15.0 15.0 2.5 0.0 0.1 15.0 15.0 0.1 0.1 0.0 0.0 0.0 0.0 5.9 0.0 0.0 0.0 0.1 0.1 0.2 0.2 0.2 0.2 0.8 5.9
0.2 3.2 0.1 0.1 0.1 0.1 0.1 0.1 0.1 0.1 0.5 15.0 5.7 1.5 0.5 0.1 0.1 0.1 0.3 1.5 0.5 2.7 12.5 5.4 0.9 2.8 5.3 15.0 15.0 15.0 15.0 0.0 0.0 13.0 15.0 3.2 0.0 0.0 0.0 0.0 0.0 0.5 0.0 0.0 0.0 0.0 0.0 0.0 0.1 0.1 0.1 1.2 2.4 2.8
11.7 15.0 2.0 0.5 10.7 0.2 0.2 0.2 0.2 0.8 3.3 0.7 0.2 0.1 0.2 0.5 0.1 0.5 0.5 3.3 15.0 15.0 14.0 11.7 13.6 15.0 15.0 12.7 3.1 0.1 8.9 0.0 0.0 0.0 3.9 0.5 0.0 0.1 0.0 0.0 0.0 0.0 0.0 0.0 0.0 0.0 0.0 0.0 0.0 0.0 0.0 0.1 0.2 0.1
7.1 15.0 1.7 15.0 12.0 0.3 1.9 8.6 8.7 9.6 15.0 0.2 0.5 1.0 0.8 0.3 0.8 14.9 13.7 9.9 1.6 0.5 0.4 0.4 0.8 0.7 0.3 0.3 0.8 0.1 0.0 0.0 0.0 0.0 0.0 0.0 0.1 0.1 0.1 0.0 0.0 0.0 0.0 0.0 0.0 0.1 0.0 0.0 0.1 0.1 0.1 0.1 0.1 0.1
12.6 15.0 15.0 15.0 15.0 15.0 15.0 15.0 15.0 15.0 15.0 0.2 0.5 5.9 9.8 0.2 0.3 15.0 14.8 6.5 13.5 14.2 5.8 2.6 1.1 0.2 0.2 0.1 0.2 0.3 0.6 0.3 0.1 0.1 0.0 0.0 0.1 0.2 0.1 0.1 0.0 0.1 0.0 0.0 0.1 0.2 0.1 0.1 0.1 0.2 0.2 0.2 0.2 0.3
15.0 5.5 5.0 1.8 1.9 15.0 15.0 15.0 15.0 3.5 0.1 0.1 0.1 0.1 0.1 0.2 0.5 0.5 3.8 14.9 8.8 4.9 1.0 0.2 0.2 0.1 0.1 0.1 0.1 0.2 0.2 0.2 0.2 0.1 0.1 0.1 0.1 1.0 7.0 1.2 0.0 0.0 0.0 0.0 0.1 0.3 0.2 0.2 0.2 0.2 0.2 0.2 0.2 0.1
15.0 15.0 7.6 14.3 14.3 15.0 15.0 11.7 15.0 0.5 0.1 0.1 0.1 0.1 0.3 13.3 0.3 0.1 2.5 14.6 0.3 0.3 0.3 0.3 0.1 0.1 0.1 0.1 0.1 0.1 0.6 0.7 4.3 15.0 15.0 14.8 15.0 7.1 7.8 3.2 0.1 0.0 0.0 0.0 0.1 0.2 0.3 0.5 0.3 0.2 0.1 0.2 0.1 0.1